Simultaneous Nadir Overpasses (SNOs) Predictions

Prediction of SNOs between GOES-16 and TERRA Satellite Orbit:

Table of predicted SNOs for the next 14.0 days since TLE Epoch: 4/29/2023
Index Date Time (GOES-16) GOES-16 Lat,Lon TERRA Lat,Lon Distance(km) Time Diff (sec)
1 04/30/2023 15:07:18 0.04, -75.19 -0.10, -74.63 64.20 80
2 05/01/2023 03:27:39 -0.04, -75.19 -0.98, -79.57 498.18 80
3 05/03/2023 03:11:26 -0.04, -75.20 -0.14, -75.65 51.57 80
4 05/05/2023 02:52:33 -0.04, -75.22 0.72, -71.74 395.53 80
5 05/05/2023 15:12:46 0.04, -75.22 0.33, -76.65 162.24 80
6 05/07/2023 14:59:12 0.03, -75.24 -0.49, -72.73 285.01 80
7 05/08/2023 03:19:34 -0.03, -75.24 -0.52, -77.68 277.06 80
8 05/10/2023 03:00:39 -0.02, -75.26 0.27, -73.75 170.30 80
9 05/10/2023 15:20:52 0.02, -75.26 0.76, -78.66 387.43 80
10 05/12/2023 15:07:18 0.01, -75.28 -0.11, -74.75 60.86 80
